Showing default

KUIPER-00085, 64831

Orbit data source: Space-Track

KUIPER-00085, 64831 is a payload satellite owned by Kuiper Systems (US) in LEO that was launched on Wed, 16 Jul 2025 UTC via an FALCON 9 launch vehicle from the Air Force Eastern Test Range (AFETR). Payload-class satellites include a variety of spacecraft equipped with specific instruments for various scientific and technological missions. These include communications satellites like Starlink; space stations such as the ISS; scientific satellites like the Hubble; Earth observation satellites from companies like Planet Labs, Umbra, and HawkEye 360; GPS; miniature CubeSats for education and research; and military/defense satellites.

Loading next visibility...
Identifier
64831, 2025-151R
Orbit
LEO
Country
Flag of USUS
Related business
Manufacturer
Kuiper Systems
Mission
Operational Commercial Communications
Bus & Motor
KUIPER, Unknown motor
Mass
~490 kg wet, ~490 kg dry
Launch date (UTC)
2025-07-16 (11 months ago)
Launch vehicle
FALCON 9
Launch site
Air Force Eastern Test Range (AFETR)
Object type
Payload
Rocket body
Debris
Shape & HBR
Box + 2 Pan, 3.4 m
Radar Cross Section
2.326 m², Large (>1 m²)

Expand to show TLE details & history
Last TLE update: 7 hours ago

TLE from 7 hours ago
0 KUIPER-00085
1 64831U 25151R   26166.86064417  .00000260  00000-0  63088-4 0  9990
2 64831  51.9017 214.0455 0000535  85.2159 274.8864 14.79930409 50012
Epoch: 2026-06-15T20:39Z
TLE epoch observation values (Epoch: 2026-06-15T20:39:19.656Z)
Latitude
-0.00005°
Longitude
0.0726°
Altitude
630.259 km
Speed
7.545 km/s
True Right ascension
14h 16m 10s
True Declination
0° 00' 00"
Sunlit
Object was in full shadow at epoch
Visualization orbit readout
Latitude
Unknown
Longitude
Unknown
Altitude
Unknown
Speed
Unknown
Apparent Right ascension
Unknown
Apparent Declination
Unknown
Sunlit
N/A
Visualization observer readout
Local Sidereal Time
14:44:14
Azimuth
Unknown
Elevation
Unknown
Doppler factor
Unknown
Orbital elements
Apogee altitude
630.37 km
Perigee altitude
629.62 km
Semi-major axis
7,008.132 km
Eccentricity
0.00005
Inclination
51.9017°
RAAN
214.0455°
Arg. of periapsis
85.2159°
True anomaly
274.88029°
Mean anomaly
274.8864°
Eccentric anomaly
274.88335°
Mean motion
3.69947 °/min
Orbital period
97.31 mins
BSTAR
0.000063088
Loading maneuver chart data...
Computing Atmospheric mass density...
Loading historical data...
Loading historical data...
Loading historical data...
Loading historical data...
Loading historical data...
Loading historical data...
Loading historical data...

Documentation

Showing up to 5 results
|